Luverne, MN

9:36 AM CDT on October 15, 2019 (GMT -0500)
Luverne

Weather History for KLYV - September, 2019

Change the Weather History Date:

Tuesday, September 17, 2019

  Actual Average (WUND) Record (WUND)
Temperature  
Mean Temperature 78 °F -  
Max Temperature 86 °F - - (-1)
Min Temperature 71 °F - - (-1)
Cooling Degree Days 14    
Growing Degree Days 28 (Base 50)    
Moisture  
Dew Point 65 °F    
Average Humidity 68    
Maximum Humidity 88    
Minimum Humidity 48    
Precipitation  
Precipitation 0.00 in - - ()
Sea Level Pressure  
Sea Level Pressure 29.88 in    
Wind  
Wind Speed 12 mph (South)    
Max Wind Speed 23 mph    
Max Gust Speed 31 mph    
Visibility 10 miles    
Events Thunderstorm    
Averages and records for this station are not official NWS values.
T = Trace of Precipitation, MM = Missing Value Source: NWS Daily Summary

Daily Weather History Graph

Daily Weather History Graph

Search for Another Location

Airport or City:

Astronomy

Sep. 17, 2019 Rise Set
Actual Time 7:06 AM CDT 7:31 PM CDT
Civil Twilight 6:37 AM CDT 8:00 PM CDT
Nautical Twilight 6:03 AM CDT 8:34 PM CDT
Astronomical Twilight 5:28 AM CDT 9:09 PM CDT
Moon 9:29 PM CDT (9/17) 10:16 AM CDT (9/17)
Length of Visible Light 13h 22m
Length of Day
12h 25m
Waning Gibbous, 89% of the Moon is Illuminated
Sep 17
Waning Gibbous
Sep 21
Last Quarter
Sep 28
New
Oct 5
First Quarter
Oct 13
Full

Hourly Weather History & Observations

Time (CDT) Temp. Heat Index Dew Point Humidity Pressure Visibility Wind Dir Wind Speed Gust Speed Precip Events Conditions
12:16 AM 73.4 °F - 68.0 °F 83% 29.93 in 10.0 mi South 9.2 mph - N/A   Scattered Clouds
12:36 AM 73.4 °F - 68.0 °F 83% 29.93 in 10.0 mi South 9.2 mph - N/A   Scattered Clouds
12:59 AM 71.6 °F - 68.0 °F 88% 29.92 in 10.0 mi SSE 8.1 mph - N/A   Scattered Clouds
1:17 AM 71.6 °F - 68.0 °F 88% 29.92 in 10.0 mi South 8.1 mph - N/A   Scattered Clouds
1:36 AM 71.6 °F - 66.2 °F 83% 29.92 in 10.0 mi South 9.2 mph - N/A   Clear
1:56 AM 71.6 °F - 66.2 °F 83% 29.92 in 10.0 mi South 12.7 mph 16.1 mph N/A   Clear
2:15 AM 71.6 °F - 66.2 °F 83% 29.92 in 10.0 mi South 10.4 mph - N/A   Clear
2:37 AM 71.6 °F - 66.2 °F 83% 29.92 in 10.0 mi South 10.4 mph - N/A   Scattered Clouds
2:55 AM 71.6 °F - 66.2 °F 83% 29.92 in 10.0 mi South 11.5 mph - N/A   Scattered Clouds
3:16 AM 71.6 °F - 66.2 °F 83% 29.91 in 10.0 mi South 9.2 mph - N/A   Scattered Clouds
3:58 AM 71.6 °F - 66.2 °F 83% 29.91 in 10.0 mi SSE 10.4 mph - N/A   Mostly Cloudy
4:16 AM 71.6 °F - 66.2 °F 83% 29.91 in 10.0 mi South 9.2 mph 16.1 mph N/A   Scattered Clouds
4:36 AM 71.6 °F - 66.2 °F 83% 29.91 in 10.0 mi SSE 11.5 mph - N/A   Scattered Clouds
4:56 AM 71.6 °F - 66.2 °F 83% 29.90 in 10.0 mi South 9.2 mph - N/A   Scattered Clouds
5:20 AM 71.6 °F - 66.2 °F 83% 29.90 in 10.0 mi South 9.2 mph 16.1 mph N/A   Scattered Clouds
5:38 AM 71.6 °F - 66.2 °F 83% 29.90 in 10.0 mi South 12.7 mph 16.1 mph N/A   Scattered Clouds
5:55 AM 71.6 °F - 66.2 °F 83% 29.90 in 10.0 mi South 11.5 mph 20.7 mph N/A   Scattered Clouds
6:15 AM 71.6 °F - 66.2 °F 83% 29.90 in 10.0 mi South 11.5 mph 17.3 mph N/A   Scattered Clouds
6:36 AM 71.6 °F - 66.2 °F 83% 29.91 in 10.0 mi South 10.4 mph 17.3 mph N/A   Mostly Cloudy
6:58 AM 71.6 °F - 66.2 °F 83% 29.91 in 10.0 mi South 10.4 mph 17.3 mph N/A   Scattered Clouds
7:17 AM 71.6 °F - 64.4 °F 78% 29.91 in 10.0 mi South 10.4 mph 17.3 mph N/A   Scattered Clouds
7:56 AM 71.6 °F - 66.2 °F 83% 29.92 in 10.0 mi South 11.5 mph 16.1 mph N/A   Scattered Clouds
8:15 AM 73.4 °F - 66.2 °F 78% 29.91 in 10.0 mi South 11.5 mph 17.3 mph N/A   Scattered Clouds
8:37 AM 73.4 °F - 66.2 °F 78% 29.91 in 10.0 mi South 12.7 mph 19.6 mph N/A   Clear
8:55 AM 73.4 °F - 66.2 °F 78% 29.91 in 10.0 mi South 13.8 mph 20.7 mph N/A   Clear
9:16 AM 75.2 °F - 66.2 °F 73% 29.90 in 10.0 mi South 15.0 mph 23.0 mph N/A   Clear
9:36 AM 77.0 °F - 66.2 °F 69% 29.90 in 10.0 mi South 13.8 mph 21.9 mph N/A   Clear
9:58 AM 77.0 °F - 64.4 °F 65% 29.90 in 10.0 mi South 20.7 mph 27.6 mph N/A   Clear
10:16 AM 78.8 °F - 64.4 °F 61% 29.90 in 10.0 mi South 18.4 mph 28.8 mph N/A   Clear
10:36 AM 78.8 °F - 64.4 °F 61% 29.90 in 10.0 mi South 17.3 mph 25.3 mph N/A   Clear
10:55 AM 80.6 °F 82.3 °F 64.4 °F 58% 29.90 in 10.0 mi South 18.4 mph 24.2 mph N/A   Clear
11:15 AM 80.6 °F 82.7 °F 66.2 °F 61% 29.90 in 10.0 mi South 18.4 mph 27.6 mph N/A   Clear
11:37 AM 80.6 °F 82.3 °F 64.4 °F 58% 29.90 in 10.0 mi South 21.9 mph 27.6 mph N/A   Clear
12:16 PM 82.4 °F 83.9 °F 64.4 °F 54% 29.90 in 10.0 mi South 17.3 mph 27.6 mph N/A   Clear
12:36 PM 82.4 °F 83.9 °F 64.4 °F 54% 29.89 in 10.0 mi South 17.3 mph 28.8 mph N/A   Clear
12:58 PM 82.4 °F 83.9 °F 64.4 °F 54% 29.89 in 10.0 mi South 23.0 mph 29.9 mph N/A   Clear
1:17 PM 84.2 °F 86.6 °F 66.2 °F 55% 29.89 in 10.0 mi South 18.4 mph 26.5 mph N/A   Clear
1:36 PM 84.2 °F 86.6 °F 66.2 °F 55% 29.88 in 10.0 mi South 19.6 mph 26.5 mph N/A   Clear
1:56 PM 84.2 °F 85.6 °F 64.4 °F 51% 29.87 in 10.0 mi South 23.0 mph 27.6 mph N/A   Clear
2:15 PM 86.0 °F 87.3 °F 64.4 °F 48% 29.87 in 10.0 mi South 18.4 mph 31.1 mph N/A   Clear
2:19 PM 84.2 °F 86.6 °F 66.2 °F 55% 29.87 in 10.0 mi South 17.3 mph 31.1 mph N/A   Clear
2:37 PM 86.0 °F 87.3 °F 64.4 °F 48% 29.86 in 10.0 mi South 15.0 mph 26.5 mph N/A   Clear
2:56 PM 86.0 °F 87.3 °F 64.4 °F 48% 29.86 in 10.0 mi South 20.7 mph 29.9 mph N/A   Clear
3:15 PM 86.0 °F 87.3 °F 64.4 °F 48% 29.85 in 10.0 mi South 20.7 mph 29.9 mph N/A   Clear
3:36 PM 86.0 °F 87.3 °F 64.4 °F 48% 29.85 in 10.0 mi South 19.6 mph 26.5 mph N/A   Clear
3:58 PM 86.0 °F 87.3 °F 64.4 °F 48% 29.85 in 10.0 mi South 23.0 mph 29.9 mph N/A   Clear
4:17 PM 86.0 °F 87.3 °F 64.4 °F 48% 29.85 in 10.0 mi South 16.1 mph 27.6 mph N/A   Clear
4:36 PM 84.2 °F 85.6 °F 64.4 °F 51% 29.84 in 10.0 mi South 15.0 mph 31.1 mph N/A   Clear
4:56 PM 84.2 °F 85.6 °F 64.4 °F 51% 29.84 in 10.0 mi South 20.7 mph 31.1 mph N/A   Clear
5:15 PM 82.4 °F 83.9 °F 64.4 °F 54% 29.83 in 10.0 mi South 17.3 mph 23.0 mph N/A   Clear
5:19 PM 82.4 °F 83.9 °F 64.4 °F 54% 29.84 in 10.0 mi South 15.0 mph 23.0 mph N/A   Clear
5:37 PM 82.4 °F 83.9 °F 64.4 °F 54% 29.83 in 10.0 mi South 17.3 mph 25.3 mph N/A   Clear
5:56 PM 82.4 °F 83.9 °F 64.4 °F 54% 29.83 in 10.0 mi South 12.7 mph 24.2 mph N/A   Clear
6:16 PM 80.6 °F 82.3 °F 64.4 °F 58% 29.83 in 10.0 mi South 13.8 mph 20.7 mph N/A   Clear
6:36 PM 80.6 °F 82.3 °F 64.4 °F 58% 29.83 in 10.0 mi South 10.4 mph 16.1 mph N/A   Clear
6:58 PM 78.8 °F - 64.4 °F 61% 29.83 in 10.0 mi South 10.4 mph 18.4 mph N/A   Clear
7:16 PM 78.8 °F - 64.4 °F 61% 29.83 in 10.0 mi South 11.5 mph - N/A   Clear
7:36 PM 77.0 °F - 64.4 °F 65% 29.83 in 10.0 mi SSE 8.1 mph - N/A   Clear
7:56 PM 77.0 °F - 64.4 °F 65% 29.83 in 10.0 mi SSE 9.2 mph - N/A   Clear
8:15 PM 75.2 °F - 64.4 °F 69% 29.84 in 10.0 mi SSE 8.1 mph - N/A   Clear
8:37 PM 75.2 °F - 64.4 °F 69% 29.84 in 10.0 mi SSE 11.5 mph 16.1 mph N/A   Clear
8:55 PM 75.2 °F - 64.4 °F 69% 29.85 in 10.0 mi SSE 10.4 mph - N/A   Clear
9:16 PM 73.4 °F - 64.4 °F 73% 29.85 in 10.0 mi SSE 9.2 mph - N/A   Clear
9:36 PM 73.4 °F - 64.4 °F 73% 29.85 in 10.0 mi SSE 9.2 mph 16.1 mph N/A   Clear
9:58 PM 73.4 °F - 64.4 °F 73% 29.85 in 10.0 mi SSE 11.5 mph 17.3 mph N/A   Clear
10:17 PM 73.4 °F - 64.4 °F 73% 29.85 in 10.0 mi SSE 10.4 mph 16.1 mph N/A   Clear
10:56 PM 73.4 °F - 64.4 °F 73% 29.85 in 10.0 mi SSE 10.4 mph - N/A   Clear
11:15 PM 73.4 °F - 64.4 °F 73% 29.85 in 10.0 mi SSE 9.2 mph - N/A   Clear
11:20 PM 73.4 °F - 64.4 °F 73% 29.85 in 10.0 mi SSE 9.2 mph - N/A   Clear
11:37 PM 73.4 °F - 64.4 °F 73% 29.85 in 10.0 mi South 12.7 mph - N/A   Clear
11:55 PM 73.4 °F - 64.4 °F 73% 29.84 in 10.0 mi South 11.5 mph 19.6 mph N/A Thunderstorm Clear